Location: Trondheim
(63.4170°N, 10.4170°E)
Time: 03:02:41
(UTC+02:00)

Iridium 82 - Visible Passes

Search period start: 28 August 2014 00:00
Search period end: 07 September 2014 00:00
Orbit: 776 x 779 km, 86.4° (Epoch: 26 August)

Date Brightness Start Highest point End Pass type
(mag) Time Alt. Az. Time Alt. Az. Time Alt. Az.
28 Aug 7.9 21:52:56 10° NNW 21:57:14 26° WNW 22:01:30 10° SW visible
29 Aug 8.8 23:02:01 10° NW 23:03:18 11° WNW 23:04:36 10° WNW visible
30 Aug 8.5 22:27:17 10° NNW 22:30:16 16° WNW 22:33:14 10° W visible
31 Aug 8.3 21:53:14 10° NNW 21:57:07 22° WNW 22:01:00 10° WSW visible
01 Sep 7.7 21:19:23 10° NNW 21:23:54 30° WNW 21:28:23 10° SW visible
02 Sep 8.7 22:27:55 10° NW 22:30:04 13° WNW 22:32:13 10° W visible
03 Sep 8.5 21:53:36 10° NNW 21:56:59 18° WNW 22:00:22 10° WSW visible
04 Sep 8.2 21:19:39 10° NNW 21:23:49 25° WNW 21:27:58 10° SW visible
05 Sep 9.2 22:29:31 10° NW 22:29:50 10° WNW 22:30:10 10° WNW visible
06 Sep 8.7 21:54:05 10° NNW 21:56:49 14° WNW 21:59:32 10° W visible
